SCP
0 0 0 -0 -0 -0 -0 -0 0 0 0 0 0 0 0 0 0 0 0 0 0 0 0 0 -0 0 -0 -0 0 0 0 -0 -0
0 0 0 0 -0 -0 -0 -0 -0 0 0 0 0 0 0 0 0 0 0 0 0 0 0 0 -0 0 -0 -0 -0 -0 0 0 0
0 0 0 0 0 -0 0 0 0 0 0 0 0 0 0 0 0 0 0 0 0 0 0 -0 -0 -0 -0 0 0 -0 -0 -0 -0
0 0 0 0 0 -0 -0 0 0 0 0 0 0 0 0 0 0 0 0 0 0 0 0 -0 -0 -0 -0 0 0 0 0 -0 -0
0 0 0 0 0 0 0 0 0 0 0 0 0 0 0 0 0 0 0 0 0 0 0 0 0 0 -0 -0 0 0 0 0 -0
0 0 0 0 0 0 0 0 0 0 0 0 0 0 0 0 0 0 0 0 0 0 0 0 0 0 0 -0 -0 0 0 0 0
-0 0 0 0 0 0 0 0 0 0 0 0 0 0 0 0 0 0 1 1 0 0 0 0 0 0 0 0 -0 -0 0 0 0
0 0 0 0 0 0 0 0 0 0 0 0 0 0 1 0 0 1 1 1 0 0 0 0 0 0 0 0 -0 -0 -0 0 -0
0 0 0 0 0 0 0 0 0 0 1 1 0 0 1 1 1 1 1 0 0 0 0 0 0 0 0 0 0 -0 -0 -0 -0
0 -0 0 0 0 0 0 0 0 0 1 1 1 1 1 1 1 1 1 0 0 0 0 0 0 0 0 0 0 0 -0 -0 -0
0 0 0 0 0 0 0 0 0 0 1 1 1 1 1 1 1 1 1 1 0 0 0 0 0 0 0 0 0 0 0 0 -0
0 0 0 0 0 0 0 0 0 0 0 1 2 1 1 1 1 1 1 1 0 1 0 0 0 0 0 0 0 0 0 0 0
0 0 1 0 0 0 0 0 0 0 0 0 1 1 1 1 1 1 1 1 1 1 1 1 1 0 0 0 0 0 -0 0 0
0 1 1 1 0 0 0 0 0 0 0 0 0 0 1 1 1 1 1 2 1 1 1 1 1 1 1 0 0 0 0 -0 0
0 0 1 2 2 2 1 1 1 1 0 1 0 0 1 1 2 2 2 2 2 2 2 2 1 1 1 1 1 1 0 0 0
0 0 0 1 1 1 2 2 2 2 2 1 1 0 0 0 1 2 2 3 3 3 2 2 2 2 2 2 2 2 1 0 0
0 0 0 0 1 1 1 1 2 1 1 1 1 1 1 1 1 1 3 3 3 3 4 3 3 3 3 3 3 3 3 1 0
0 0 0 0 0 0 0 1 1 1 1 2 2 2 2 2 2 2 2 0 1 3 4 3 4 4 4 5 3 3 3 4 3
0 0 0 0 0 0 0 0 1 1 1 1 1 2 2 3 2 2 0 0 0 0 0 0 2 3 4 0 0 0 0 0 0
0 0 0 0 0 0 0 0 0 0 0 0 0 1 1 1 3 1 0 0 0 0 0 0 0 0 0 0 0 0 0 0 0
Wind_Speed_500mb
64 65 80 94 88 96 102 107 103 100 98 96 92 89 83 75 75 76 70 58 47 47 53 52 40 37 33 29 24 23 23 25 27
57 72 80 86 94 95 102 108 110 109 103 98 92 93 91 82 77 78 75 63 53 47 48 49 46 37 33 31 29 26 26 29 29
60 72 81 83 86 93 99 102 107 110 107 102 96 87 91 87 82 76 72 66 61 54 50 48 47 43 37 36 33 32 32 32 33
69 74 83 96 99 99 98 93 99 108 108 104 106 98 94 90 87 83 76 69 64 57 50 47 51 48 42 40 38 35 39 39 36
72 83 91 97 99 97 95 98 99 104 104 104 103 98 94 92 83 83 82 75 67 60 54 52 52 52 51 49 45 41 41 40 38
70 76 86 90 78 77 94 100 100 102 101 101 96 95 97 96 92 88 84 79 71 64 57 55 56 56 58 54 52 49 45 44 43
42 55 72 82 77 87 96 102 103 100 96 93 91 93 94 96 95 91 87 78 76 70 62 58 61 62 60 60 56 56 52 50 49
44 50 61 71 84 90 93 94 100 98 94 90 88 89 88 90 86 90 83 79 76 72 67 64 62 64 67 64 65 65 60 60 59
41 59 76 81 84 94 96 102 110 103 100 93 86 84 81 79 79 81 81 77 73 72 69 67 67 68 69 71 73 69 69 65 64
41 45 59 78 94 97 103 108 110 106 100 92 85 81 76 77 76 75 74 74 73 73 72 67 69 68 69 73 75 74 72 72 75
39 35 43 66 93 101 101 102 103 99 95 91 82 74 72 74 77 73 73 75 75 74 72 70 69 69 68 70 73 73 73 75 79
34 32 35 67 81 91 90 93 92 94 89 86 81 72 74 75 72 70 72 75 74 73 72 69 69 67 65 66 65 63 61 65 73
37 16 17 43 62 64 69 77 84 88 87 85 79 71 72 71 68 64 65 64 66 65 65 64 65 65 62 59 56 51 48 51 59
49 43 20 37 46 55 62 69 72 78 80 83 75 64 61 57 58 59 58 58 58 57 56 53 55 53 48 47 44 41 41 42 50
69 62 42 38 49 53 54 57 55 61 60 60 58 53 53 51 52 54 54 51 48 48 48 50 50 49 48 48 45 43 43 43 47
69 70 67 60 44 42 52 53 49 48 52 56 59 53 51 47 46 47 48 46 46 48 49 51 50 51 51 49 42 39 38 37 38
74 68 57 52 59 63 54 40 40 39 35 35 38 41 42 39 39 38 39 41 44 49 52 51 49 47 51 44 36 34 32 32 32
72 68 60 46 42 43 42 37 38 35 32 29 25 22 26 34 40 42 43 47 49 50 47 46 45 47 40 38 33 29 28 28 32
65 66 62 54 41 33 29 24 19 19 19 23 24 22 21 23 25 27 30 35 40 43 43 43 44 41 37 35 33 29 23 25 31
55 57 58 58 49 34 28 20 17 14 8 6 15 23 27 27 27 28 31 34 37 38 38 37 35 35 31 28 29 28 25 24 24
Wind_Direction_500mb
207 206 209 215 213 216 219 219 218 221 222 219 224 224 226 229 233 234 234 235 240 238 237 235 234 229 232 236 242 239 240 240 239
207 206 207 212 215 216 221 222 222 220 221 222 223 228 226 228 232 234 233 234 236 239 237 232 230 227 226 227 235 243 247 247 246
213 209 210 210 210 212 220 224 225 226 225 224 222 227 228 230 231 233 233 235 236 237 236 233 228 228 222 226 232 240 248 251 247
215 210 211 216 216 213 221 221 223 227 227 227 227 227 229 230 234 232 232 234 236 238 237 235 229 227 227 231 236 241 246 248 249
220 219 216 221 222 213 211 219 221 225 227 227 228 228 229 231 232 234 233 235 237 236 235 233 232 232 231 234 235 240 246 243 242
222 226 219 217 215 207 208 215 221 223 226 228 228 228 230 230 230 233 235 236 237 237 234 234 234 234 234 232 233 234 233 237 241
242 228 222 218 213 216 209 212 219 222 224 228 230 230 230 230 231 233 236 237 239 237 237 235 234 234 235 233 231 233 233 234 239
245 239 231 222 216 214 208 204 210 221 226 225 227 229 231 233 234 235 237 237 239 240 238 236 236 236 237 237 235 234 235 236 238
256 246 239 232 225 212 204 205 213 220 223 223 224 226 230 232 232 234 235 236 237 238 238 235 235 236 237 239 240 239 238 239 242
314 285 251 228 220 208 209 211 216 219 222 221 221 224 228 231 231 229 230 232 233 234 234 234 235 236 238 240 242 243 244 245 247
324 292 245 221 209 208 211 214 215 214 218 221 221 224 226 229 229 226 227 230 232 233 234 235 238 239 239 241 243 244 246 249 251
342 308 220 208 203 205 202 206 208 211 215 221 221 224 225 225 227 228 230 232 233 233 235 237 240 244 247 247 248 249 250 251 252
15 14 181 204 206 202 200 200 206 210 213 220 223 226 224 225 227 231 235 237 237 239 241 243 246 247 248 253 255 254 251 250 252
45 50 114 162 187 195 200 203 205 210 213 221 226 226 228 229 232 234 235 236 236 237 239 240 242 245 247 249 250 251 251 250 252
52 57 84 131 163 176 186 197 206 213 218 224 228 232 231 232 234 236 236 237 239 240 241 244 248 251 255 258 260 261 261 259 259
48 58 73 88 115 161 173 182 197 201 208 214 219 225 230 231 236 241 244 242 241 243 245 246 250 254 258 260 262 263 265 260 258
46 44 52 68 85 93 106 147 165 178 194 210 218 224 231 231 227 224 230 234 236 237 238 243 246 251 254 257 263 266 263 259 252
37 41 41 47 60 74 85 104 124 133 143 148 160 178 202 217 223 224 221 225 231 237 242 245 249 250 257 262 257 259 255 244 243
27 30 34 39 44 54 63 71 93 116 140 159 168 174 185 196 204 207 209 213 217 221 227 233 242 248 244 237 238 237 234 239 245
14 18 24 27 30 30 39 48 56 68 75 170 195 207 214 221 226 225 221 216 217 222 225 226 221 223 226 230 227 231 230 243 253
Wind_Speed_850mb
64 65 80 94 88 96 102 107 103 100 98 96 92 89 83 75 75 76 70 58 47 47 53 52 40 37 33 29 24 23 23 25 27
57 72 80 86 94 95 102 108 110 109 103 98 92 93 91 82 77 78 75 63 53 47 48 49 46 37 33 31 29 26 26 29 29
60 72 81 83 86 93 99 102 107 110 107 102 96 87 91 87 82 76 72 66 61 54 50 48 47 43 37 36 33 32 32 32 33
69 74 83 96 99 99 98 93 99 108 108 104 106 98 94 90 87 83 76 69 64 57 50 47 51 48 42 40 38 35 39 39 36
72 83 91 97 99 97 95 98 99 104 104 104 103 98 94 92 83 83 82 75 67 60 54 52 52 52 51 49 45 41 41 40 38
70 76 86 90 78 77 94 100 100 102 101 101 96 95 97 96 92 88 84 79 71 64 57 55 56 56 58 54 52 49 45 44 43
42 55 72 82 77 87 96 102 103 100 96 93 91 93 94 96 95 91 87 78 76 70 62 58 61 62 60 60 56 56 52 50 49
44 50 61 71 84 90 93 94 100 98 94 90 88 89 88 90 86 90 83 79 76 72 67 64 62 64 67 64 65 65 60 60 59
41 59 76 81 84 94 96 102 110 103 100 93 86 84 81 79 79 81 81 77 73 72 69 67 67 68 69 71 73 69 69 65 64
41 45 59 78 94 97 103 108 110 106 100 92 85 81 76 77 76 75 74 74 73 73 72 67 69 68 69 73 75 74 72 72 75
39 35 43 66 93 101 101 102 103 99 95 91 82 74 72 74 77 73 73 75 75 74 72 70 69 69 68 70 73 73 73 75 79
34 32 35 67 81 91 90 93 92 94 89 86 81 72 74 75 72 70 72 75 74 73 72 69 69 67 65 66 65 63 61 65 73
37 16 17 43 62 64 69 77 84 88 87 85 79 71 72 71 68 64 65 64 66 65 65 64 65 65 62 59 56 51 48 51 59
49 43 20 37 46 55 62 69 72 78 80 83 75 64 61 57 58 59 58 58 58 57 56 53 55 53 48 47 44 41 41 42 50
69 62 42 38 49 53 54 57 55 61 60 60 58 53 53 51 52 54 54 51 48 48 48 50 50 49 48 48 45 43 43 43 47
69 70 67 60 44 42 52 53 49 48 52 56 59 53 51 47 46 47 48 46 46 48 49 51 50 51 51 49 42 39 38 37 38
74 68 57 52 59 63 54 40 40 39 35 35 38 41 42 39 39 38 39 41 44 49 52 51 49 47 51 44 36 34 32 32 32
72 68 60 46 42 43 42 37 38 35 32 29 25 22 26 34 40 42 43 47 49 50 47 46 45 47 40 38 33 29 28 28 32
65 66 62 54 41 33 29 24 19 19 19 23 24 22 21 23 25 27 30 35 40 43 43 43 44 41 37 35 33 29 23 25 31
55 57 58 58 49 34 28 20 17 14 8 6 15 23 27 27 27 28 31 34 37 38 38 37 35 35 31 28 29 28 25 24 24
Wind_Direction_850mb
207 206 209 215 213 216 219 219 218 221 222 219 224 224 226 229 233 234 234 235 240 238 237 235 234 229 232 236 242 239 240 240 239
207 206 207 212 215 216 221 222 222 220 221 222 223 228 226 228 232 234 233 234 236 239 237 232 230 227 226 227 235 243 247 247 246
213 209 210 210 210 212 220 224 225 226 225 224 222 227 228 230 231 233 233 235 236 237 236 233 228 228 222 226 232 240 248 251 247
215 210 211 216 216 213 221 221 223 227 227 227 227 227 229 230 234 232 232 234 236 238 237 235 229 227 227 231 236 241 246 248 249
220 219 216 221 222 213 211 219 221 225 227 227 228 228 229 231 232 234 233 235 237 236 235 233 232 232 231 234 235 240 246 243 242
222 226 219 217 215 207 208 215 221 223 226 228 228 228 230 230 230 233 235 236 237 237 234 234 234 234 234 232 233 234 233 237 241
242 228 222 218 213 216 209 212 219 222 224 228 230 230 230 230 231 233 236 237 239 237 237 235 234 234 235 233 231 233 233 234 239
245 239 231 222 216 214 208 204 210 221 226 225 227 229 231 233 234 235 237 237 239 240 238 236 236 236 237 237 235 234 235 236 238
256 246 239 232 225 212 204 205 213 220 223 223 224 226 230 232 232 234 235 236 237 238 238 235 235 236 237 239 240 239 238 239 242
314 285 251 228 220 208 209 211 216 219 222 221 221 224 228 231 231 229 230 232 233 234 234 234 235 236 238 240 242 243 244 245 247
324 292 245 221 209 208 211 214 215 214 218 221 221 224 226 229 229 226 227 230 232 233 234 235 238 239 239 241 243 244 246 249 251
342 308 220 208 203 205 202 206 208 211 215 221 221 224 225 225 227 228 230 232 233 233 235 237 240 244 247 247 248 249 250 251 252
15 14 181 204 206 202 200 200 206 210 213 220 223 226 224 225 227 231 235 237 237 239 241 243 246 247 248 253 255 254 251 250 252
45 50 114 162 187 195 200 203 205 210 213 221 226 226 228 229 232 234 235 236 236 237 239 240 242 245 247 249 250 251 251 250 252
52 57 84 131 163 176 186 197 206 213 218 224 228 232 231 232 234 236 236 237 239 240 241 244 248 251 255 258 260 261 261 259 259
48 58 73 88 115 161 173 182 197 201 208 214 219 225 230 231 236 241 244 242 241 243 245 246 250 254 258 260 262 263 265 260 258
46 44 52 68 85 93 106 147 165 178 194 210 218 224 231 231 227 224 230 234 236 237 238 243 246 251 254 257 263 266 263 259 252
37 41 41 47 60 74 85 104 124 133 143 148 160 178 202 217 223 224 221 225 231 237 242 245 249 250 257 262 257 259 255 244 243
27 30 34 39 44 54 63 71 93 116 140 159 168 174 185 196 204 207 209 213 217 221 227 233 242 248 244 237 238 237 234 239 245
14 18 24 27 30 30 39 48 56 68 75 170 195 207 214 221 226 225 221 216 217 222 225 226 221 223 226 230 227 231 230 243 253